"Period start","avg(HW err(1)/warn(2) (#))","avg(Visibility (m))","avg(Weather code (#))","avg(Precip intensity (mm/h))","min(HW err(1)/warn(2) (#))","max(HW err(1)/warn(2) (#))","std(HW err(1)/warn(2) (#))","med(HW err(1)/warn(2) (#))","min(Visibility (m))","max(Visibility (m))","std(Visibility (m))","med(Visibility (m))","min(Weather code (#))","max(Weather code (#))","std(Weather code (#))","med(Weather code (#))","min(Precip intensity (mm/h))","max(Precip intensity (mm/h))","std(Precip intensity (mm/h))","med(Precip intensity (mm/h))"
2017-09-06 00:00:00,2,14227,0,0.00,2,2,0,2,5592,26578,6873,11987,0,0,0,0,0.00,0.00,0.00,0.00
2017-09-06 00:10:00,2,13860,0,0.00,2,2,0,2,5951,26661,7200,11398,0,0,0,0,0.00,0.00,0.00,0.00
2017-09-06 00:20:00,2,6822,34,0.12,2,2,0,2,4564,9727,1462,6482,10,61,17,41,0.00,0.45,0.14,0.08
2017-09-06 00:30:00,2,6642,41,0.03,2,2,0,2,5268,9748,1376,6176,41,41,0,41,0.00,0.05,0.03,0.03
2017-09-06 00:40:00,2,4953,45,0.23,2,2,0,2,3825,6489,863,4718,10,61,19,51,0.00,0.85,0.29,0.10
2017-09-06 00:50:00,2,7607,23,0.03,2,2,0,2,4107,10695,1964,7382,10,51,17,10,0.00,0.15,0.05,0.00
2017-09-06 01:00:00,2,6661,10,0.00,2,2,0,2,4082,9569,1889,6364,10,10,0,10,0.00,0.00,0.00,0.00
2017-09-06 01:10:00,2,11444,10,0.00,2,2,0,2,7302,14662,2025,11500,10,10,0,10,0.00,0.00,0.00,0.00
2017-09-06 01:20:00,2,7985,4,0.00,2,2,0,2,5896,11289,1754,7371,0,10,5,0,0.00,0.00,0.00,0.00
2017-09-06 01:30:00,2,7866,10,0.00,2,2,0,2,4530,10831,1732,7502,10,10,0,10,0.00,0.00,0.00,0.00
2017-09-06 01:40:00,2,7014,10,0.00,2,2,0,2,5941,10698,1475,6354,10,10,0,10,0.00,0.00,0.00,0.00
2017-09-06 01:50:00,2,18276,8,0.00,2,2,0,2,12724,22874,3643,19076,0,10,4,10,0.00,0.00,0.00,0.00
2017-09-06 02:00:00,2,15911,0,0.00,2,2,0,2,13303,24876,3372,14507,0,0,0,0,0.00,0.00,0.00,0.00
2017-09-06 02:10:00,2,17060,0,0.00,2,2,0,2,11571,29675,5203,15654,0,0,0,0,0.00,0.00,0.00,0.00
2017-09-06 02:20:00,2,15993,0,0.00,2,2,0,2,10787,23222,3993,13968,0,0,0,0,0.00,0.00,0.00,0.00
2017-09-06 02:30:00,2,24976,0,0.00,2,2,0,2,16384,31793,5482,26290,0,0,0,0,0.00,0.00,0.00,0.00
2017-09-06 02:40:00,2,26056,0,0.00,2,2,0,2,17990,34870,4717,26724,0,0,0,0,0.00,0.00,0.00,0.00
2017-09-06 02:50:00,2,23771,0,0.00,2,2,0,2,20337,31036,2907,22964,0,0,0,0,0.00,0.00,0.00,0.00
2017-09-06 03:00:00,2,26491,0,0.00,2,2,0,2,14539,41549,8011,26448,0,0,0,0,0.00,0.00,0.00,0.00
2017-09-06 03:10:00,2,18010,0,0.00,2,2,0,2,13369,20152,1966,18143,0,0,0,0,0.00,0.00,0.00,0.00
2017-09-06 03:20:00,2,17384,0,0.00,2,2,0,2,13794,25312,3101,17126,0,0,0,0,0.00,0.00,0.00,0.00
2017-09-06 03:30:00,2,10933,2,0.00,2,2,0,2,3524,23624,7459,7052,0,10,4,0,0.00,0.00,0.00,0.00
2017-09-06 03:40:00,2,4894,10,0.00,2,2,0,2,3362,7644,1266,4376,10,10,0,10,0.00,0.00,0.00,0.00
2017-09-06 03:50:00,2,5798,10,0.00,2,2,0,2,2928,9817,2002,5653,10,10,0,10,0.00,0.00,0.00,0.00
2017-09-06 04:00:00,2,12848,10,0.00,2,2,0,2,8773,15606,2414,13586,10,10,0,10,0.00,0.00,0.00,0.00
2017-09-06 04:10:00,2,18997,0,0.00,2,2,0,2,10529,30357,5867,18186,0,0,0,0,0.00,0.00,0.00,0.00
2017-09-06 04:20:00,2,17758,0,0.00,2,2,0,2,13817,19490,1667,18158,0,0,0,0,0.00,0.00,0.00,0.00
2017-09-06 04:30:00,2,21758,0,0.00,2,2,0,2,11635,33700,6481,21904,0,0,0,0,0.00,0.00,0.00,0.00
2017-09-06 04:40:00,2,8427,2,0.00,2,2,0,2,4712,14044,3126,7824,0,10,4,0,0.00,0.00,0.00,0.00
2017-09-06 04:50:00,2,4191,16,0.01,2,2,0,2,2576,6957,1519,3744,10,41,12,10,0.00,0.10,0.03,0.00
2017-09-06 05:00:00,2,4189,10,0.00,2,2,0,2,2388,6562,1405,3696,10,10,0,10,0.00,0.00,0.00,0.00
2017-09-06 05:10:00,2,2828,26,0.11,2,2,0,2,1784,4502,834,2820,10,41,16,26,0.00,0.45,0.15,0.05
2017-09-06 05:20:00,2,3104,10,0.00,2,2,0,2,2407,4158,573,2940,10,10,0,10,0.00,0.00,0.00,0.00
2017-09-06 05:30:00,2,3861,10,0.00,2,2,0,2,2900,5118,721,3584,10,10,0,10,0.00,0.00,0.00,0.00
2017-09-06 05:40:00,2,2973,16,0.07,2,2,0,2,2377,3712,447,2931,10,41,12,10,0.00,0.35,0.13,0.00
2017-09-06 05:50:00,2,2776,55,0.62,2,2,0,2,2070,3475,448,2926,41,61,9,61,0.10,1.60,0.50,0.40
2017-09-06 06:00:00,2,3144,43,0.11,2,2,0,2,2501,3654,327,3142,41,52,4,41,0.00,0.20,0.06,0.10
2017-09-06 06:10:00,2,3588,30,0.12,2,2,0,2,2467,4751,731,3603,10,61,21,26,0.00,0.65,0.20,0.03
2017-09-06 06:20:00,2,3786,13,0.01,2,2,0,2,2889,5663,875,3425,10,41,9,10,0.00,0.05,0.02,0.00
2017-09-06 06:30:00,2,3837,41,0.09,2,2,0,2,3047,4503,430,3886,41,41,0,41,0.00,0.20,0.07,0.05
2017-09-06 06:40:00,2,5092,35,0.04,2,2,0,2,3364,9394,1673,4964,10,41,12,41,0.00,0.10,0.04,0.05
2017-09-06 06:50:00,2,11495,10,0.00,2,2,0,2,9020,15051,1791,11220,10,10,0,10,0.00,0.00,0.00,0.00
2017-09-06 07:00:00,2,17036,1,0.00,2,2,0,2,11260,32530,6261,14200,0,10,3,0,0.00,0.00,0.00,0.00
2017-09-06 07:10:00,2,19172,0,0.00,2,2,0,2,7013,41195,11311,13904,0,0,0,0,0.00,0.00,0.00,0.00
2017-09-06 07:20:00,2,19782,0,0.00,2,2,0,2,9378,31416,7917,17036,0,0,0,0,0.00,0.00,0.00,0.00
2017-09-06 07:30:00,2,30301,0,0.00,2,2,0,2,21025,46795,8569,27298,0,0,0,0,0.00,0.00,0.00,0.00
2017-09-06 07:40:00,2,46511,0,0.00,2,2,0,2,42535,50000,2333,47390,0,0,0,0,0.00,0.00,0.00,0.00
2017-09-06 07:50:00,2,49616,0,0.00,2,2,0,2,47970,50000,769,50000,0,0,0,0,0.00,0.00,0.00,0.00
2017-09-06 08:00:00,2,49725,0,0.00,2,2,0,2,48668,50000,455,50000,0,0,0,0,0.00,0.00,0.00,0.00
2017-09-06 08:10:00,2,49075,0,0.00,2,2,0,2,46561,50000,1304,50000,0,0,0,0,0.00,0.00,0.00,0.00
2017-09-06 08:20:00,2,49834,0,0.00,2,2,0,2,48670,50000,400,50000,0,0,0,0,0.00,0.00,0.00,0.00
2017-09-06 08:30:00,2,46646,0,0.00,2,2,0,2,41211,50000,3628,48763,0,0,0,0,0.00,0.00,0.00,0.00
2017-09-06 08:40:00,2,49286,0,0.00,2,2,0,2,46380,50000,1146,49966,0,0,0,0,0.00,0.00,0.00,0.00
2017-09-06 08:50:00,2,49561,0,0.00,2,2,0,2,47232,50000,915,50000,0,0,0,0,0.00,0.00,0.00,0.00
2017-09-06 09:00:00,2,48252,0,0.00,2,2,0,2,43772,50000,2238,49358,0,0,0,0,0.00,0.00,0.00,0.00
2017-09-06 09:10:00,2,35066,0,0.00,2,2,0,2,23084,42770,6812,36288,0,0,0,0,0.00,0.00,0.00,0.00
2017-09-06 09:20:00,2,37960,0,0.00,2,2,0,2,23762,50000,10920,38827,0,0,0,0,0.00,0.00,0.00,0.00
2017-09-06 09:30:00,2,49936,0,0.00,2,2,0,2,49364,50000,191,50000,0,0,0,0,0.00,0.00,0.00,0.00
2017-09-06 09:40:00,2,37865,0,0.00,2,2,0,2,28248,50000,7136,36298,0,0,0,0,0.00,0.00,0.00,0.00
2017-09-06 09:50:00,2,45273,0,0.00,2,2,0,2,25115,50000,7735,49046,0,0,0,0,0.00,0.00,0.00,0.00
2017-09-06 10:00:00,2,44913,0,0.00,2,2,0,2,37288,50000,4120,44088,0,0,0,0,0.00,0.00,0.00,0.00
2017-09-06 10:10:00,2,38729,0,0.00,2,2,0,2,27965,50000,7115,38300,0,0,0,0,0.00,0.00,0.00,0.00
2017-09-06 10:20:00,2,49335,0,0.00,2,2,0,2,46746,50000,1096,50000,0,0,0,0,0.00,0.00,0.00,0.00
2017-09-06 10:30:00,2,50000,0,0.00,2,2,0,2,50000,50000,0,50000,0,0,0,0,0.00,0.00,0.00,0.00
2017-09-06 10:40:00,2,49042,0,0.00,2,2,0,2,44209,50000,1789,50000,0,0,0,0,0.00,0.00,0.00,0.00
2017-09-06 10:50:00,2,39308,0,0.00,2,2,0,2,21763,50000,10499,42659,0,0,0,0,0.00,0.00,0.00,0.00
2017-09-06 11:00:00,2,41627,0,0.00,2,2,0,2,29167,50000,8834,45949,0,0,0,0,0.00,0.00,0.00,0.00
2017-09-06 11:10:00,2,44388,0,0.00,2,2,0,2,33536,50000,6186,47450,0,0,0,0,0.00,0.00,0.00,0.00
2017-09-06 11:20:00,2,48780,0,0.00,2,2,0,2,44075,50000,2063,49936,0,0,0,0,0.00,0.00,0.00,0.00
2017-09-06 11:30:00,2,48925,0,0.00,2,2,0,2,45856,50000,1348,49470,0,0,0,0,0.00,0.00,0.00,0.00
2017-09-06 11:40:00,2,49593,0,0.00,2,2,0,2,46866,50000,932,50000,0,0,0,0,0.00,0.00,0.00,0.00
2017-09-06 11:50:00,2,46114,0,0.00,2,2,0,2,40801,50000,2799,46078,0,0,0,0,0.00,0.00,0.00,0.00
2017-09-06 12:00:00,2,49630,0,0.00,2,2,0,2,47182,50000,857,50000,0,0,0,0,0.00,0.00,0.00,0.00
2017-09-06 12:10:00,2,47193,0,0.00,2,2,0,2,42797,50000,2821,48032,0,0,0,0,0.00,0.00,0.00,0.00
2017-09-06 12:20:00,2,50000,0,0.00,2,2,0,2,50000,50000,0,50000,0,0,0,0,0.00,0.00,0.00,0.00
2017-09-06 12:30:00,2,39116,0,0.00,2,2,0,2,30547,49594,6419,38342,0,0,0,0,0.00,0.00,0.00,0.00
2017-09-06 12:40:00,2,49746,0,0.00,2,2,0,2,48248,50000,518,50000,0,0,0,0,0.00,0.00,0.00,0.00
2017-09-06 12:50:00,2,47170,0,0.00,2,2,0,2,39118,50000,3293,48664,0,0,0,0,0.00,0.00,0.00,0.00
2017-09-06 13:00:00,2,49519,0,0.00,2,2,0,2,46106,50000,1152,49966,0,0,0,0,0.00,0.00,0.00,0.00
2017-09-06 13:10:00,2,50000,0,0.00,2,2,0,2,50000,50000,0,50000,0,0,0,0,0.00,0.00,0.00,0.00
2017-09-06 13:20:00,2,49757,0,0.00,2,2,0,2,48262,50000,540,50000,0,0,0,0,0.00,0.00,0.00,0.00
2017-09-06 13:30:00,2,49915,0,0.00,2,2,0,2,49154,50000,254,50000,0,0,0,0,0.00,0.00,0.00,0.00
2017-09-06 13:40:00,2,49813,0,0.00,2,2,0,2,48130,50000,561,50000,0,0,0,0,0.00,0.00,0.00,0.00
2017-09-06 13:50:00,2,44488,0,0.00,2,2,0,2,33762,50000,5391,44558,0,0,0,0,0.00,0.00,0.00,0.00
2017-09-06 14:00:00,2,48806,0,0.00,2,2,0,2,42440,50000,2338,50000,0,0,0,0,0.00,0.00,0.00,0.00
2017-09-06 14:10:00,2,46185,0,0.00,2,2,0,2,36165,50000,4109,47552,0,0,0,0,0.00,0.00,0.00,0.00
2017-09-06 14:20:00,2,49569,0,0.00,2,2,0,2,46567,50000,1034,50000,0,0,0,0,0.00,0.00,0.00,0.00
2017-09-06 14:30:00,2,43563,0,0.00,2,2,0,2,37176,50000,3979,43768,0,0,0,0,0.00,0.00,0.00,0.00
2017-09-06 14:40:00,2,45934,0,0.00,2,2,0,2,34253,50000,5065,47842,0,0,0,0,0.00,0.00,0.00,0.00
2017-09-06 14:50:00,2,18585,0,0.00,2,2,0,2,8788,50000,11788,15467,0,0,0,0,0.00,0.00,0.00,0.00
"Period start","avg(HW err(1)/warn(2) (#))","avg(Visibility (m))","avg(Weather code (#))","avg(Precip intensity (mm/h))","min(HW err(1)/warn(2) (#))","max(HW err(1)/warn(2) (#))","std(HW err(1)/warn(2) (#))","med(HW err(1)/warn(2) (#))","min(Visibility (m))","max(Visibility (m))","std(Visibility (m))","med(Visibility (m))","min(Weather code (#))","max(Weather code (#))","std(Weather code (#))","med(Weather code (#))","min(Precip intensity (mm/h))","max(Precip intensity (mm/h))","std(Precip intensity (mm/h))","med(Precip intensity (mm/h))"
2017-09-06 18:00:00,2,32063,12,0.01,2,2,0,2,17207,43518,9864,37236,0,41,19,0,0.00,0.05,0.02,0.00
2017-09-06 18:10:00,2,22148,0,0.00,2,2,0,2,16566,30582,4895,20670,0,0,0,0,0.00,0.00,0.00,0.00
2017-09-06 18:20:00,2,16412,0,0.00,2,2,0,2,12014,21747,3068,16891,0,0,0,0,0.00,0.00,0.00,0.00
2017-09-06 18:30:00,2,9776,32,0.10,2,2,0,2,6552,13537,2125,10017,0,51,22,40,0.00,0.30,0.09,0.08
2017-09-06 18:40:00,2,13893,44,0.06,2,2,0,2,6459,25627,6102,12078,41,51,5,41,0.00,0.20,0.07,0.03
2017-09-06 18:50:00,2,17282,0,0.00,2,2,0,2,8547,24140,5470,18818,0,0,0,0,0.00,0.00,0.00,0.00
2017-09-06 19:00:00,2,42136,0,0.00,2,2,0,2,27811,50000,7361,44266,0,0,0,0,0.00,0.00,0.00,0.00
2017-09-06 19:10:00,2,10078,27,0.09,2,2,0,2,7254,12244,1383,10090,0,61,22,41,0.00,0.40,0.12,0.05
2017-09-06 19:20:00,2,25278,43,0.15,2,2,0,2,7143,50000,15796,21250,0,61,22,51,0.00,0.80,0.28,0.00
2017-09-06 19:30:00,2,23879,0,0.00,2,2,0,2,12149,39329,7959,24426,0,0,0,0,0.00,0.00,0.00,0.00
2017-09-06 19:40:00,2,17618,33,0.04,2,2,0,2,6070,38260,9185,14710,0,61,28,41,0.00,0.15,0.06,0.00
2017-09-06 19:50:00,2,16922,0,0.00,2,2,0,2,8673,28588,5396,16052,0,0,0,0,0.00,0.00,0.00,0.00
2017-09-06 20:00:00,2,18884,0,0.00,2,2,0,2,12625,30186,4767,17957,0,0,0,0,0.00,0.00,0.00,0.00
2017-09-06 20:10:00,2,46510,0,0.00,2,2,0,2,39220,50000,3132,47060,0,0,0,0,0.00,0.00,0.00,0.00
2017-09-06 20:20:00,2,49341,0,0.00,2,2,0,2,46494,50000,1044,49891,0,0,0,0,0.00,0.00,0.00,0.00
2017-09-06 20:30:00,2,41564,0,0.00,2,2,0,2,25286,50000,8514,43278,0,0,0,0,0.00,0.00,0.00,0.00
2017-09-06 20:40:00,2,28457,0,0.00,2,2,0,2,13650,47787,10973,26340,0,0,0,0,0.00,0.00,0.00,0.00
2017-09-06 20:50:00,2,47889,0,0.00,2,2,0,2,41742,50000,2931,49804,0,0,0,0,0.00,0.00,0.00,0.00
2017-09-06 21:00:00,2,48076,0,0.00,2,2,0,2,37096,50000,3985,50000,0,0,0,0,0.00,0.00,0.00,0.00
2017-09-06 21:10:00,2,47960,0,0.00,2,2,0,2,43406,50000,2356,48788,0,0,0,0,0.00,0.00,0.00,0.00
2017-09-06 21:20:00,2,49493,0,0.00,2,2,0,2,47536,50000,974,50000,0,0,0,0,0.00,0.00,0.00,0.00
2017-09-06 21:30:00,2,48030,0,0.00,2,2,0,2,41411,50000,3228,50000,0,0,0,0,0.00,0.00,0.00,0.00
2017-09-06 21:40:00,2,48323,0,0.00,2,2,0,2,42761,50000,2551,49741,0,0,0,0,0.00,0.00,0.00,0.00
2017-09-06 21:50:00,2,47456,0,0.00,2,2,0,2,37450,50000,3718,48940,0,0,0,0,0.00,0.00,0.00,0.00
2017-09-06 22:00:00,2,48859,0,0.00,2,2,0,2,43704,50000,2082,49980,0,0,0,0,0.00,0.00,0.00,0.00
2017-09-06 22:10:00,2,48808,0,0.00,2,2,0,2,43825,50000,1968,50000,0,0,0,0,0.00,0.00,0.00,0.00
2017-09-06 22:20:00,2,26476,0,0.00,2,2,0,2,15836,36494,6784,26540,0,0,0,0,0.00,0.00,0.00,0.00
2017-09-06 22:30:00,2,48048,0,0.00,2,2,0,2,40515,50000,3102,50000,0,0,0,0,0.00,0.00,0.00,0.00
2017-09-06 22:40:00,2,49726,0,0.00,2,2,0,2,48158,50000,552,50000,0,0,0,0,0.00,0.00,0.00,0.00
2017-09-06 22:50:00,2,50000,0,0.00,2,2,0,2,50000,50000,0,50000,0,0,0,0,0.00,0.00,0.00,0.00
2017-09-06 23:00:00,2,48503,0,0.00,2,2,0,2,43831,50000,2098,49984,0,0,0,0,0.00,0.00,0.00,0.00
2017-09-06 23:10:00,2,50000,0,0.00,2,2,0,2,50000,50000,0,50000,0,0,0,0,0.00,0.00,0.00,0.00
2017-09-06 23:20:00,2,49960,0,0.00,2,2,0,2,49599,50000,120,50000,0,0,0,0,0.00,0.00,0.00,0.00
2017-09-06 23:30:00,2,49870,0,0.00,2,2,0,2,48696,50000,391,50000,0,0,0,0,0.00,0.00,0.00,0.00
2017-09-06 23:40:00,2,49837,0,0.00,2,2,0,2,49076,50000,330,50000,0,0,0,0,0.00,0.00,0.00,0.00
2017-09-06 23:50:00,2,49773,0,0.00,2,2,0,2,47727,50000,682,50000,0,0,0,0,0.00,0.00,0.00,0.00
